sat.trackr.live / text

‹ back to catalog

STARLINK-36593

NORAD 67564 · 2026-016D

PAYLOAD ACTIVE UNKNOWN

§ Identity

Operator
Country
US
Launch date
2026-01-25
Launch site
AFWTR
Launch vehicle
Mass (kg)
RCS (m²)

Purposes: comms

External: N2YO · Heavens-Above · Gunter

§ Orbital elements

Epoch: 2026-05-25T03:34:35.410080Z

Period
93.91 min
Inclination
97.2835°
Eccentricity
0.0001253
Mean motion
15.33451776 rev/d
Perigee alt
464.7 km
Apogee alt
466.4 km
Semi-major
6,843.7 km
B*
4.1582e-4
RAAN
205.5057°
Arg perigee
94.9076°
Mean anomaly
265.2310°
Rev number
1,858

§ Raw data

STARLINK-365931 67564U 26016D   26145.14902095  .00013376  00000+0  41582-3 0  99932 67564  97.2835 205.5057 0001253  94.9076 265.2310 15.33451776 18587

JSON: /api/v1/satellites/67564 · /tle

For live sub-satellite position, see the globe view (requires WebGL).

§ Visibility from observer

Set your observer location to see the next 7 days of passes ≥ 10°. The values pass through the URL so the page stays shareable.

No JS? Fill the form by hand. The geolocation button needs JavaScript.